CW2884 Weather Reports


time (UTC)temp
F
wind
direction
speed
knots
gust
knots
rain 1hr
in
rain 24hr
in
rain mn
in
humidity
%
barometer
mb
20260510220544 92 0.0 0.0 0.00 0.00 0.00 55 1015.4
20260510220100 91 0.0 0.0 0.00 0.00 0.00 55 1015.2
20260510220015 92 0.0 0.0 0.00 0.00 0.00 55 1015.3
20260510215036 92 0.0 0.0 0.00 0.00 0.00 56 1015.4
20260510214529 92 0.0 0.0 0.00 0.00 0.00 56 1015.4
20260510214516 92 0.0 0.0 0.00 0.00 0.00 56 1015.2
20260510213519 92 0.0 0.0 0.00 0.00 0.00 55 1015.4
20260510213111 92 0.0 0.0 0.00 0.00 0.00 55 1015.3
20260510213030 92 0.0 0.0 0.00 0.00 0.00 55 1015.5
20260510212019 92 0.0 0.0 0.00 0.00 0.00 55 1015.4
20260510211549 92 0.0 0.0 0.00 0.00 0.00 55 1015.3
20260510211531 92 0.0 0.0 0.00 0.00 0.00 55 1015.4
20260510210542 92 0.0 0.0 0.00 0.00 0.00 55 1015.4
20260510210116 92 0.0 0.0 0.00 0.00 0.00 55 1015.3
20260510210053 93 0.0 0.0 0.00 0.00 0.00 55 1015.4
20260510205035 93 0.0 0.0 0.00 0.00 0.00 53 1015.5
20260510204608 93 0.0 0.0 0.00 0.00 0.00 52 1015.4
20260510204528 93 0.0 0.0 0.00 0.00 0.00 52 1015.5
20260510203520 93 0.0 0.0 0.00 0.00 0.00 52 1015.4
20260510203048 93 0.0 0.0 0.00 0.00 0.00 51 1015.2
20260510203031 93 0.0 0.0 0.00 0.00 0.00 51 1015.4
20260510201553 93 0.0 0.0 0.00 0.00 0.00 50 1015.0
20260510201518 94 0.0 0.0 0.00 0.00 0.00 50 1015.2
20260510200549 94 0.0 0.0 0.00 0.00 0.00 51 1015.2
20260510200105 94 0.0 0.0 0.00 0.00 0.00 50 1015.2
20260510200020 94 0.0 0.0 0.00 0.00 0.00 50 1015.4
20260510195021 94 0.0 0.0 0.00 0.00 0.00 51 1015.3
20260510194525 94 0.0 0.0 0.00 0.00 0.00 51 1015.1
20260510194513 94 0.0 0.0 0.00 0.00 0.00 52 1015.3
20260510193544 95 0.0 0.0 0.00 0.00 0.00 52 1015.3
20260510193046 94 0.0 0.0 0.00 0.00 0.00 52 1015.1
20260510193015 95 0.0 0.0 0.00 0.00 0.00 52 1015.3
20260510192023 95 0.0 0.0 0.00 0.00 0.00 51 1015.4
20260510191538 95 0.0 0.0 0.00 0.00 0.00 52 1015.4
20260510190525 95 0.0 0.0 0.00 0.00 0.00 52 1015.3
20260510190014 95 0.0 0.0 0.00 0.00 0.00 52 1015.3
20260510185024 94 0.0 0.0 0.00 0.00 0.00 52 1015.3
20260510184530 94 0.0 0.0 0.00 0.00 0.00 52 1015.4
20260510183540 94 0.0 0.0 0.00 0.00 0.00 52 1015.6
20260510183023 94 0.0 0.0 0.00 0.00 0.00 51 1015.6
20260510181514 94 0.0 0.0 0.00 0.00 0.00 53 1015.8
20260510180547 93 0.0 0.0 0.00 0.00 0.00 55 1016.0
20260510180013 93 0.0 0.0 0.00 0.00 0.00 55 1016.1
20260510175100 93 0.0 0.0 0.00 0.00 0.00 54 1016.0
20260510173521 92 0.0 0.0 0.00 0.00 0.00 58 1016.2
20260510173030 92 0.0 0.0 0.00 0.00 0.00 60 1016.3
20260510172039 92 0.0 0.0 0.00 0.00 0.00 59 1016.4
20260510171526 92 0.0 0.0 0.00 0.00 0.00 60 1016.4
20260510170540 92 0.0 0.0 0.00 0.00 0.00 59 1016.6
20260510170028 92 0.0 0.0 0.00 0.00 0.00 58 1016.7
20260510164513 92 0.0 0.0 0.00 0.00 0.00 60 1016.7
20260510163523 91 0.0 0.0 0.00 0.00 0.00 59 1016.8
20260510163016 91 0.0 0.0 0.00 0.00 0.00 59 1016.7
20260510160522 90 0.0 0.0 0.00 0.00 0.00 62 1017.1
20260510160030 89 0.0 0.0 0.00 0.00 0.00 62 1017.0
20260510155019 89 0.0 0.0 0.00 0.00 0.00 64 1017.0
20260510154549 89 0.0 0.0 0.00 0.00 0.00 64 1017.0
20260510153520 88 0.0 0.0 0.00 0.00 0.00 64 1016.9
20260510152026 87 0.0 0.0 0.00 0.00 0.00 66 1016.9
20260510151515 87 0.0 0.0 0.00 0.00 0.00 67 1017.0
20260510150522 86 0.0 0.0 0.00 0.00 0.00 68 1017.1
20260510150032 86 0.0 0.0 0.00 0.00 0.00 69 1017.1
20260510145021 85 0.0 0.0 0.00 0.00 0.00 71 1017.0
20260510144531 85 0.0 0.0 0.00 0.00 0.00 71 1017.0
20260510143520 84 0.0 0.0 0.00 0.00 0.00 72 1017.1
20260510143028 84 0.0 0.0 0.00 0.00 0.00 74 1017.0
20260510142015 83 0.0 0.0 0.00 0.00 0.00 76 1017.0
20260510141545 83 0.0 0.0 0.00 0.00 0.00 77 1017.1
20260510140517 82 0.0 0.0 0.00 0.00 0.00 78 1016.9
20260510140025 82 0.0 0.0 0.00 0.00 0.00 78 1016.8
20260510135033 81 0.0 0.0 0.00 0.00 0.00 81 1016.8
20260510134522 80 0.0 0.0 0.00 0.00 0.00 81 1016.8
20260510133532 79 0.0 0.0 0.00 0.00 0.00 84 1016.7
20260510133041 79 0.0 0.0 0.00 0.00 0.00 85 1016.7
20260510132053 78 0.0 0.0 0.00 0.00 0.00 85 1016.6
20260510131521 78 0.0 0.0 0.00 0.00 0.00 87 1016.6
20260510130529 77 0.0 0.0 0.00 0.00 0.00 88 1016.5
20260510130018 77 0.0 0.0 0.00 0.00 0.00 89 1016.6
20260510125027 76 0.0 0.0 0.00 0.00 0.00 90 1016.7
20260510124520 76 0.0 0.0 0.00 0.00 0.00 90 1016.7
20260510123530 76 0.0 0.0 0.00 0.00 0.00 90 1016.5
20260510123019 75 0.0 0.0 0.00 0.00 0.00 90 1016.5
20260510122030 75 0.0 0.0 0.00 0.00 0.00 90 1016.4
20260510121519 75 0.0 0.0 0.00 0.00 0.00 90 1016.3
20260510120531 75 0.0 0.0 0.00 0.00 0.00 90 1016.2
20260510120019 74 0.0 0.0 0.00 0.00 0.00 90 1016.2
20260510115026 74 0.0 0.0 0.00 0.00 0.00 89 1016.0
20260510114515 74 0.0 0.0 0.00 0.00 0.00 89 1015.8
20260510113524 74 0.0 0.0 0.00 0.00 0.00 89 1015.6
20260510113012 74 0.0 0.0 0.00 0.00 0.00 90 1015.6
20260510112025 74 0.0 0.0 0.00 0.00 0.00 89 1015.5
20260510111513 74 0.0 0.0 0.00 0.00 0.00 89 1015.4
20260510110543 74 0.0 0.0 0.00 0.00 0.00 89 1015.3
20260510110031 74 0.0 0.0 0.00 0.00 0.00 89 1015.3
20260510105100 74 0.0 0.0 0.00 0.00 0.00 89 1015.1
20260510104524 74 0.0 0.0 0.00 0.00 0.00 89 1014.9
20260510103516 74 0.0 0.0 0.00 0.00 0.00 88 1014.7
20260510103024 74 0.0 0.0 0.00 0.00 0.00 88 1014.6
20260510102032 74 0.0 0.0 0.00 0.00 0.00 88 1014.4
20260510101541 75 0.0 0.0 0.00 0.00 0.00 88 1014.4
20260510100031 75 0.0 0.0 0.00 0.00 0.00 87 1014.4
20260510095018 75 0.0 0.0 0.00 0.00 0.00 88 1014.3
20260510094529 75 0.0 0.0 0.00 0.00 0.00 88 1014.1
20260510093539 75 0.0 0.0 0.00 0.00 0.00 88 1014.1
20260510093027 75 0.0 0.0 0.00 0.00 0.00 88 1014.0
20260510092018 75 0.0 0.0 0.00 0.00 0.00 87 1013.9
20260510091528 75 0.0 0.0 0.00 0.00 0.00 87 1013.9
20260510090521 75 0.0 0.0 0.00 0.00 0.00 87 1013.9
20260510090030 75 0.0 0.0 0.00 0.00 0.00 87 1013.8
20260510085017 75 0.0 0.0 0.00 0.00 0.00 87 1013.5
20260510084527 75 0.0 0.0 0.00 0.00 0.00 87 1013.6
20260510083515 75 0.0 0.0 0.00 0.00 0.00 87 1013.6
20260510083024 75 0.0 0.0 0.00 0.00 0.00 87 1013.6
20260510082019 76 0.0 0.0 0.00 0.00 0.00 86 1013.5
20260510081527 76 0.0 0.0 0.00 0.00 0.00 86 1013.7
20260510080619 76 0.0 0.0 0.00 0.00 0.00 86 1013.9
20260510080023 76 0.0 0.0 0.00 0.00 0.00 86 1013.9
20260510075033 76 0.0 0.0 0.00 0.00 0.00 85 1013.8
20260510074522 76 0.0 0.0 0.00 0.00 0.00 85 1013.8
20260510073516 76 0.0 0.0 0.00 0.00 0.00 85 1013.8
20260510073044 76 0.0 0.0 0.00 0.00 0.00 85 1013.9
20260510072033 77 0.0 0.0 0.00 0.00 0.00 85 1014.0
20260510071522 77 0.0 0.0 0.00 0.00 0.00 84 1013.9
20260510070552 77 0.0 0.0 0.00 0.00 0.00 84 1014.0
20260510065016 77 0.0 0.0 0.00 0.00 0.00 84 1014.1
20260510064544 77 0.0 0.0 0.00 0.00 0.00 84 1014.1
20260510063517 77 0.0 0.0 0.00 0.00 0.00 83 1014.2
20260510063024 77 0.0 0.0 0.00 0.00 0.00 83 1014.3
20260510062035 78 0.0 0.0 0.00 0.00 0.00 82 1014.4
20260510061521 78 0.0 0.0 0.00 0.00 0.00 82 1014.6
20260510060530 78 0.0 0.0 0.00 0.00 0.00 81 1014.9
20260510060023 78 0.0 0.0 0.00 0.00 0.00 81 1015.0
20260510055030 78 0.0 0.0 0.00 0.00 0.00 81 1014.9
20260510054518 78 0.0 0.0 0.00 0.00 0.00 80 1015.0
20260510053528 78 0.0 0.0 0.00 0.00 0.00 80 1015.1
20260510053115 78 0.0 0.0 0.00 0.00 0.00 80 1015.0
20260510052021 78 0.0 0.0 0.00 0.00 0.00 79 1015.1
20260510050531 78 0.0 0.0 0.00 0.00 0.00 78 1015.3
20260510050021 79 0.0 0.0 0.00 0.00 0.00 77 1015.3
20260510043524 79 0.0 0.0 0.00 0.00 0.00 78 1015.3
20260510043032 79 0.0 0.0 0.00 0.00 0.00 78 1015.4
20260510042038 79 0.0 0.0 0.00 0.00 0.00 78 1015.4
20260510041527 79 0.0 0.0 0.00 0.00 0.00 78 1015.3
20260510040536 79 0.0 0.0 0.00 0.00 0.00 78 1015.2
20260510040029 79 0.0 0.0 0.00 0.00 0.00 78 1015.2
20260510035035 79 0.0 0.0 0.00 0.00 0.00 77 1015.1
20260510034522 79 0.0 0.0 0.00 0.00 0.00 77 1015.1
20260510033552 80 0.0 0.0 0.00 0.00 0.00 76 1015.1
20260510033019 80 0.0 0.0 0.00 0.00 0.00 76 1015.1
20260510032024 80 0.0 0.0 0.00 0.00 0.00 76 1015.1
20260510031537 80 0.0 0.0 0.00 0.00 0.00 76 1015.1
20260510030523 80 0.0 0.0 0.00 0.00 0.00 76 1015.1
20260510030032 80 0.0 0.0 0.00 0.00 0.00 75 1015.1
20260510025039 80 0.0 0.0 0.00 0.00 0.00 75 1015.1
20260510024524 81 0.0 0.0 0.00 0.00 0.00 75 1015.1
20260510023635 81 0.0 0.0 0.00 0.00 0.00 75 1015.1
20260510023018 81 0.0 0.0 0.00 0.00 0.00 74 1015.1
20260510022033 81 0.0 0.0 0.00 0.00 0.00 73 1015.0
20260510021521 81 0.0 0.0 0.00 0.00 0.00 73 1014.9
20260510020546 81 0.0 0.0 0.00 0.00 0.00 73 1014.9
20260510020034 81 0.0 0.0 0.00 0.00 0.00 73 1014.8
20260510015021 82 0.0 0.0 0.00 0.00 0.00 72 1014.7
20260510014632 82 0.0 0.0 0.00 0.00 0.00 71 1014.5
20260510013520 82 0.0 0.0 0.00 0.00 0.00 70 1014.4
20260510013029 82 0.0 0.0 0.00 0.00 0.00 70 1014.3
20260510011532 83 0.0 0.0 0.00 0.00 0.00 68 1014.1
20260510010540 83 0.0 0.0 0.00 0.00 0.00 66 1013.9
20260510010049 84 0.0 0.0 0.00 0.00 0.00 65 1014.0
20260510005019 84 0.0 0.0 0.00 0.00 0.00 62 1013.8
20260510004527 85 0.0 0.0 0.00 0.00 0.00 61 1013.8
20260510003536 85 0.0 0.0 0.00 0.00 0.00 60 1013.6
20260510003025 86 0.0 0.0 0.00 0.00 0.00 59 1013.6
20260510002032 86 0.0 0.0 0.00 0.00 0.00 58 1013.4
20260510001519 87 0.0 0.0 0.00 0.00 0.00 57 1013.4
20260510000532 88 0.0 0.0 0.00 0.00 0.00 54 1013.3
20260510000021 88 0.0 0.0 0.00 0.00 0.00 53 1013.2
20260509235028 89 0.0 0.0 0.00 0.00 0.00 52 1013.0
20260509233547 90 0.0 0.0 0.00 0.00 0.00 52 1012.8
20260509233020 90 0.0 0.0 0.00 0.00 0.00 52 1012.7
20260509232029 90 0.0 0.0 0.00 0.00 0.00 50 1012.6
20260509231517 91 0.0 0.0 0.00 0.00 0.00 49 1012.6
20260509230546 91 0.0 0.0 0.00 0.00 0.00 48 1012.6
20260509230034 92 0.0 0.0 0.00 0.00 0.00 47 1012.5
20260509225021 93 0.0 0.0 0.00 0.00 0.00 45 1012.5
20260509224549 93 0.0 0.0 0.00 0.00 0.00 45 1012.5
20260509223520 94 0.0 0.0 0.00 0.00 0.00 43 1012.4
20260509223029 94 0.0 0.0 0.00 0.00 0.00 44 1012.3
20260509222039 95 0.0 0.0 0.00 0.00 0.00 43 1012.3
20260509221549 95 0.0 0.0 0.00 0.00 0.00 44 1012.3